Andrews, NC

4:48 PM EDT on April 25, 2017 (GMT -0400)
Andrews

Weather History for KRHP - May, 2014

Change the Weather History Date:

Tuesday, May 6, 2014

  Actual Average (KMMI) Record (KMMI)
Temperature  
Mean Temperature 68 °F -  
Max Temperature 86 °F 75 °F 84 °F (2014)
Min Temperature 49 °F 46 °F 37 °F (2016)
Cooling Degree Days 2    
Growing Degree Days 18 (Base 50)    
Moisture  
Dew Point 50 °F    
Average Humidity 56    
Maximum Humidity 97    
Minimum Humidity 20    
Precipitation  
Precipitation 0.00 in - - ()
Sea Level Pressure  
Sea Level Pressure 29.99 in    
Wind  
Wind Speed 3 mph (WSW)    
Max Wind Speed 13 mph    
Max Gust Speed 18 mph    
Visibility 10 miles    
Events      
Averages and records for this station are not official NWS values.
T = Trace of Precipitation, MM = Missing Value Source: NWS Daily Summary

Daily Weather History Graph

Daily Weather History Graph

Search for Another Location

Airport or City:

Trip Planner

Search our weather history database for the weather conditions in past years. The results will help you decide how hot, cold, wet, or windy it might be!

Date:

Astronomy

May. 06, 2014 Rise Set
Actual Time 6:39 AM EDT 8:25 PM EDT
Civil Twilight 6:11 AM EDT 8:52 PM EDT
Nautical Twilight 5:38 AM EDT 9:26 PM EDT
Astronomical Twilight 5:03 AM EDT 10:01 PM EDT
Moon 12:51 PM EDT (5/6) 1:46 AM EDT (5/6)
Length of Visible Light 14h 41m
Length of Day
13h 46m
Waxing Crescent, 46% of the Moon is Illuminated
May 6
Waxing Crescent
May 6
First Quarter
May 14
Full
May 21
Last Quarter
May 28
New

Hourly Weather History & Observations

Time (EDT) Temp. Heat Index Dew Point Humidity Pressure Visibility Wind Dir Wind Speed Gust Speed Precip Events Conditions
12:15 AM 55.8 °F - 52.7 °F 89% 29.98 in 10.0 mi Calm Calm - N/A   Clear
12:35 AM 55.4 °F - 52.0 °F 88% 29.99 in 10.0 mi Calm Calm - N/A   Clear
12:55 AM 54.9 °F - 52.5 °F 92% 29.99 in 10.0 mi Calm Calm - N/A   Clear
1:15 AM 53.1 °F - 51.3 °F 94% 29.99 in 10.0 mi Calm Calm - N/A   Clear
1:35 AM 52.2 °F - 51.1 °F 96% 29.99 in 10.0 mi Calm Calm - N/A   Clear
1:55 AM 52.9 °F - 50.5 °F 92% 29.99 in 10.0 mi Calm Calm - N/A   Clear
2:15 AM 52.2 °F - 51.1 °F 96% 29.98 in 10.0 mi Calm Calm - N/A   Clear
2:35 AM 52.2 °F - 51.4 °F 97% 29.99 in 10.0 mi Calm Calm - N/A   Clear
2:55 AM 51.4 °F - 50.5 °F 97% 29.99 in 10.0 mi Calm Calm - N/A   Clear
3:15 AM 50.4 °F - 49.3 °F 96% 29.99 in 10.0 mi Calm Calm - N/A   Clear
3:35 AM 49.8 °F - 49.1 °F 97% 29.99 in 7.0 mi Calm Calm - N/A   Clear
7:55 AM 51.4 °F - 50.2 °F 95% 30.04 in 10.0 mi Calm Calm - N/A   Clear
8:15 AM 52.7 °F - 51.1 °F 94% 30.05 in 10.0 mi Calm Calm - N/A   Clear
8:35 AM 54.1 °F - 51.4 °F 91% 30.05 in 10.0 mi Calm Calm - N/A   Clear
8:55 AM 56.1 °F - 52.7 °F 88% 30.05 in 10.0 mi Calm Calm - N/A   Clear
9:15 AM 58.6 °F - 54.0 °F 84% 30.05 in 10.0 mi Calm Calm - N/A   Clear
10:15 AM 68.2 °F - 54.3 °F 61% 30.04 in 10.0 mi Calm Calm - N/A   Clear
10:35 AM 72.5 °F - 55.6 °F 55% 30.03 in 10.0 mi Calm Calm - N/A   Clear
10:55 AM 75.0 °F - 53.4 °F 47% 30.03 in 10.0 mi SSW 3.5 mph - N/A   Clear
11:15 AM 76.5 °F - 50.5 °F 40% 30.02 in 10.0 mi Calm Calm - N/A   Clear
11:35 AM 77.4 °F - 52.2 °F 41% 30.01 in 10.0 mi Calm Calm - N/A   Clear
11:55 AM 78.4 °F - 51.6 °F 39% 30.01 in 10.0 mi Calm Calm - N/A   Clear
12:15 PM 79.2 °F - 52.3 °F 39% 30.01 in 10.0 mi SSE 3.5 mph - N/A   Clear
12:35 PM 80.1 °F - 52.5 °F 38% 30.00 in 10.0 mi SW 9.2 mph - N/A   Clear
12:55 PM 81.0 °F 80.4 °F 53.2 °F 38% 30.00 in 10.0 mi SW 10.4 mph - N/A   Clear
1:15 PM 81.7 °F - 50.9 °F 34% 29.99 in 10.0 mi SW 11.5 mph 16.1 mph N/A   Clear
1:35 PM 82.4 °F - 47.3 °F 29% 29.99 in 10.0 mi SW 11.5 mph - N/A   Clear
1:55 PM 83.1 °F - 41.7 °F 23% 29.98 in 10.0 mi SW 12.7 mph 18.4 mph N/A   Clear
2:15 PM 84.7 °F - 45.3 °F 25% 29.98 in 10.0 mi WSW 12.7 mph 16.1 mph N/A   Clear
2:35 PM 84.2 °F - 47.3 °F 28% 29.97 in 10.0 mi SSW 11.5 mph 17.3 mph N/A   Clear
2:55 PM 83.8 °F - 47.1 °F 28% 29.96 in 10.0 mi WSW 11.5 mph 16.1 mph N/A   Clear
3:15 PM 84.4 °F - 46.6 °F 27% 29.96 in 10.0 mi WSW 6.9 mph - N/A   Clear
3:35 PM 85.5 °F - 44.6 °F 24% 29.96 in 10.0 mi WSW 8.1 mph - N/A   Clear
4:15 PM 85.6 °F - 44.6 °F 24% 29.94 in 10.0 mi SSW 5.8 mph - N/A   Clear
4:35 PM 86.4 °F - 41.0 °F 20% 29.94 in 10.0 mi WNW 5.8 mph - N/A   Clear
4:55 PM 86.2 °F - 43.2 °F 22% 29.94 in 10.0 mi SW 5.8 mph 9.2 mph N/A   Clear
5:15 PM 86.0 °F - 44.6 °F 23% 29.93 in 10.0 mi SW 8.1 mph - N/A   Clear
5:35 PM 86.2 °F - 44.4 °F 23% 29.93 in 10.0 mi WSW 9.2 mph - N/A   Clear
5:55 PM 86.0 °F - 46.0 °F 25% 29.93 in 10.0 mi WSW 9.2 mph - N/A   Clear
6:15 PM 85.3 °F - 46.8 °F 26% 29.94 in 10.0 mi West 9.2 mph - N/A   Clear
6:35 PM 84.6 °F - 47.5 °F 27% 29.94 in 10.0 mi SW 8.1 mph - N/A   Clear
6:55 PM 83.1 °F - 48.0 °F 29% 29.95 in 10.0 mi SW 10.4 mph 17.3 mph N/A   Clear
7:15 PM 82.0 °F - 49.5 °F 32% 29.95 in 10.0 mi SW 8.1 mph - N/A   Clear
7:35 PM 80.1 °F - 50.5 °F 36% 29.96 in 10.0 mi SW 6.9 mph - N/A   Clear
7:55 PM 78.4 °F - 51.1 °F 38% 29.96 in 10.0 mi WSW 5.8 mph - N/A   Clear
8:15 PM 73.8 °F - 52.2 °F 47% 29.97 in 10.0 mi West 4.6 mph - N/A   Clear
8:35 PM 71.8 °F - 52.0 °F 50% 29.98 in 10.0 mi West 4.6 mph - N/A   Clear
8:55 PM 70.0 °F - 52.0 °F 53% 29.99 in 10.0 mi West 3.5 mph - N/A   Clear
9:15 PM 68.2 °F - 52.0 °F 56% 30.00 in 10.0 mi Calm Calm - N/A   Clear
9:35 PM 67.6 °F - 52.5 °F 58% 30.01 in 10.0 mi NW 4.6 mph - N/A   Clear
9:55 PM 64.0 °F - 52.3 °F 66% 30.01 in 10.0 mi Calm Calm - N/A   Clear
10:15 PM 62.1 °F - 52.7 °F 71% 30.03 in 10.0 mi Calm Calm - N/A   Clear
10:35 PM 60.6 °F - 52.2 °F 74% 30.03 in 10.0 mi Calm Calm - N/A   Clear
10:55 PM 59.2 °F - 51.8 °F 77% 30.04 in 10.0 mi Calm Calm - N/A   Clear
11:15 PM 59.5 °F - 52.5 °F 78% 30.04 in 10.0 mi Calm Calm - N/A   Clear
11:35 PM 58.3 °F - 52.5 °F 81% 30.05 in 10.0 mi Calm Calm - N/A   Clear